Home   Weather   Ratingen   Past weeks
Flag for Germany

Past Weather in Ratingen, North Rhine-Westphalia, Germany — Yesterday and Last 2 Weeks

Now
64 °F

Clear.


Feels Like: 64 °F
Forecast: 69 / 47 °F
Wind: 5 mph from West

Location: Duesseldorf

Current Time: Apr 6, 2020 at 9:34:28 pm

Latest Report: Apr 6, 2020 at 8:50 pm


Visibility: 10 mi

Pressure: 30.18 "Hg

Humidity: 34%

Dew Point: 36 °F

Location of RatingenLocation

Past Weather in Ratingen — Graph

°F

Ratingen Temperature Yesterday

Maximum temperature yesterday: 68 °F (at 3:50 pm)
Minimum temperature yesterday: 36 °F (at 4:20 am)
Average temperature yesterday: 54 °F

High & Low Weather Summary for the Past Weeks

 TemperatureHumidityPressure
High73 °F (Apr 6, 2:20 pm)100% (Mar 31, 1:20 am)30.54 "Hg (Mar 31, 1:20 am)
Low23 °F (Mar 30, 6:20 am)22% (Mar 23, 4:20 pm)29.86 "Hg (Apr 2, 5:50 pm)
Average45 °F54%30.23 "Hg
* Reported Mar 22 7:20 pm — Apr 6 8:20 pm, Ratingen. Weather by CustomWeather, © 2020

Note: Actual official high and low records may vary slightly from our data, if they occured in-between our weather recording intervals... More about our weather records

Ratingen Weather History for the Previous 24 Hours

Scroll right to see more
 ConditionsComfort  
Time TempWeatherWind HumidityBarometerVisibility
8:20 pm
Mon, Apr 6
66 °FClear.7 mph35%30.15 "Hg10 mi
7:50 pm68 °FSunny.9 mph33%30.15 "Hg10 mi
7:20 pm70 °FSunny.9 mph31%30.15 "Hg10 mi
6:50 pm70 °FSunny.13 mph38%30.12 "Hg10 mi
6:20 pm72 °FSunny.13 mph33%30.12 "Hg10 mi
5:50 pm73 °FSunny.13 mph27%30.12 "Hg10 mi
5:20 pm73 °FSunny.15 mph29%30.12 "Hg10 mi
4:50 pm73 °FSunny.14 mph29%30.12 "Hg10 mi
4:20 pm73 °FPassing clouds.16 mph29%30.12 "HgN/A
3:50 pm73 °FPassing clouds.13 mph29%30.09 "HgN/A
3:20 pm73 °FPassing clouds.15 mph29%30.09 "HgN/A
2:50 pm73 °FPassing clouds.10 mph31%30.09 "HgN/A
2:20 pm73 °FPassing clouds.13 mph29%30.09 "HgN/A
1:50 pm72 °FPassing clouds.12 mph33%30.09 "HgN/A
1:20 pm72 °FPassing clouds.13 mph33%30.09 "HgN/A
12:50 pm70 °FPassing clouds.12 mph33%30.09 "HgN/A
12:20 pm68 °FPassing clouds.10 mph35%30.09 "HgN/A
11:50 am66 °FPassing clouds.10 mph37%30.09 "HgN/A
11:20 am64 °FPassing clouds.14 mph40%30.09 "HgN/A
10:50 am63 °FSunny.14 mph42%30.09 "Hg10 mi
10:20 am61 °FSunny.17 mph42%30.09 "Hg10 mi
9:50 am59 °FSunny.20 mph42%30.07 "Hg10 mi
9:20 am57 °FSunny.15 mph44%30.07 "Hg10 mi
8:50 am55 °FSunny.14 mph44%30.07 "Hg10 mi
8:20 am55 °FSunny.15 mph44%30.07 "Hg10 mi
7:50 am54 °FSunny.15 mph47%30.07 "Hg10 mi
7:20 am52 °FSunny.15 mph47%30.04 "Hg10 mi
6:50 am54 °FClear.15 mph44%30.04 "Hg10 mi
6:20 am54 °FClear.15 mph44%30.04 "Hg10 mi
5:50 am54 °FClear.14 mph44%30.04 "Hg10 mi
5:20 am54 °FClear.14 mph44%30.04 "Hg10 mi
4:50 am54 °FClear.13 mph44%30.04 "Hg10 mi
4:20 am54 °FClear.13 mph44%30.04 "Hg10 mi
3:50 am54 °FClear.14 mph44%30.04 "Hg10 mi
3:20 am54 °FClear.13 mph44%30.04 "Hg10 mi
2:50 am54 °FClear.10 mph44%30.07 "Hg10 mi
2:20 am54 °FClear.10 mph44%30.07 "Hg10 mi
1:50 am55 °FClear.13 mph41%30.07 "Hg10 mi
1:20 am55 °FClear.13 mph41%30.07 "Hg10 mi
12:50 am57 °FClear.13 mph39%30.07 "Hg10 mi
12:20 am57 °FClear.12 mph39%30.07 "Hg10 mi
11:50 pm
Sun, Apr 5
57 °FClear.10 mph41%30.07 "Hg10 mi
11:20 pm57 °FClear.10 mph41%30.07 "Hg10 mi
10:50 pm57 °FClear.7 mph41%30.07 "Hg10 mi
10:20 pm57 °FClear.10 mph41%30.07 "Hg10 mi
9:50 pm59 °FClear.8 mph39%30.07 "Hg10 mi
9:20 pm61 °FClear.12 mph34%30.07 "Hg10 mi
Weather by CustomWeather, © 2020

See weather overview

Advertising